Flag for United Kingdom Weather past 2 weeks in Bristol, England, United Kingdom

Now
55 °F

Partly sunny.


Feels Like: 52 °F
Forecast: 44 / 64 °F
Wind: 15 mph from West

Location: Bristol / Lulsgate

Current Time: May 25, 2015 at 5:42:41 PM

Latest Report: May 25, 2015 at 5:20 PM


Visibility: N/A

Pressure: 30.12 "Hg

Humidity: 77%

Dew point: 48 °F

Location of BristolLocation

Historic Weather in Bristol — Graph

°F

Bristol temperature yesterday

Maximum temperature yesterday: 59 °F (at 3:20 PM)
Minimum temperature yesterday: 48 °F (at 11:50 PM)
Average temperature yesterday: 53 °F

Past Weeks' High & Low Weather Summary

 TemperatureHumidityPressure
High66 °F (May 23, 2:50 PM)100% (May 13, 6:20 AM)30.39 "Hg (May 13, 6:20 AM)
Low39 °F (May 20, 2:50 AM)36% (May 13, 1:50 PM)29.59 "Hg (May 18, 10:20 AM)
Average51 °F80%30.09 "Hg
* Reported May 10 4:20 PM — May 25 4:20 PM, Bristol, Weather by CustomWeather, © 2015

Note: Actual official high and low records may vary slightly from our data, if they occured in-between our weather recording intervals... More about our weather records

Advertising

Bristol weather history for previous 24 hours

 ConditionsComfort  
Time TempWeatherWind HumidityBarometerVisibility
4:20 PM
Mon, May 25
57 °FPartly sunny.13 mph77%30.12 "HgN/A
3:50 PM55 °FPartly sunny.13 mph77%30.12 "HgN/A
3:20 PM55 °FPartly sunny.12 mph77%30.12 "HgN/A
2:50 PM57 °FPartly sunny.13 mph77%30.12 "HgN/A
2:20 PM57 °FPartly sunny.12 mph77%30.12 "HgN/A
1:50 PM55 °FBroken clouds.12 mph77%30.12 "HgN/A
1:20 PM57 °FBroken clouds.15 mph72%30.12 "HgN/A
12:50 PM55 °FScattered clouds.12 mph77%30.12 "HgN/A
12:20 PM55 °FScattered clouds.13 mph72%30.12 "HgN/A
11:50 AM57 °FScattered clouds.13 mph77%30.12 "HgN/A
11:20 AM57 °FScattered clouds.10 mph72%30.12 "HgN/A
10:50 AM55 °FScattered clouds.9 mph72%30.12 "HgN/A
10:20 AM55 °FPassing clouds.7 mph72%30.12 "HgN/A
9:50 AM54 °FScattered clouds.7 mph77%30.12 "HgN/A
9:20 AM52 °FScattered clouds.6 mph77%30.15 "HgN/A
8:50 AM52 °FPassing clouds.5 mph77%30.15 "HgN/A
8:20 AM52 °FPassing clouds.6 mph77%30.15 "HgN/A
7:50 AM50 °FPassing clouds.7 mph82%30.12 "HgN/A
7:20 AM50 °FScattered clouds.7 mph82%30.12 "HgN/A
6:50 AM50 °FPassing clouds.5 mph82%30.12 "HgN/A
6:20 AM48 °FPassing clouds.5 mph82%30.12 "HgN/A
5:50 AM48 °FPassing clouds.5 mph82%30.12 "HgN/A
5:20 AM48 °FPassing clouds.6 mph76%30.12 "HgN/A
4:50 AM46 °FClear.3 mph82%30.12 "Hg10 mi
4:20 AM46 °FClear.2 mph76%30.12 "Hg10 mi
3:50 AM45 °FClear.3 mph81%30.12 "Hg10 mi
3:20 AM45 °FClear.5 mph81%30.15 "Hg10 mi
2:50 AM46 °FPassing clouds.5 mph76%30.12 "HgN/A
2:20 AM46 °FPassing clouds.5 mph82%30.12 "HgN/A
1:50 AM46 °FPassing clouds.6 mph82%30.12 "HgN/A
1:20 AM48 °FPassing clouds.6 mph82%30.15 "HgN/A
12:50 AM50 °FClear.7 mph76%30.15 "Hg10 mi
12:20 AM50 °FClear.9 mph76%30.15 "Hg10 mi
11:50 PM
Sun, May 24
48 °FClear.6 mph76%30.15 "Hg10 mi
11:20 PM50 °FClear.6 mph76%30.12 "Hg10 mi
10:20 PM52 °FClear.3 mph82%30.12 "Hg10 mi
9:50 PM52 °FPassing clouds.3 mph94%30.12 "HgN/A
9:20 PM54 °FPassing clouds.7 mph88%30.09 "HgN/A
8:50 PM55 °FPassing clouds.7 mph82%30.09 "HgN/A
8:20 PM57 °FPassing clouds.9 mph82%30.09 "HgN/A
7:50 PM59 °FPassing clouds.8 mph82%30.09 "HgN/A
7:20 PM57 °FPassing clouds.8 mph88%30.09 "HgN/A
6:50 PM59 °FPassing clouds.12 mph82%30.09 "HgN/A
6:20 PM59 °FScattered clouds.10 mph88%30.09 "HgN/A
5:50 PM59 °FScattered clouds.9 mph88%30.09 "HgN/A
5:20 PM59 °FPartly sunny.8 mph88%30.09 "HgN/A
Weather by CustomWeather, © 2015

See weather overviewHow to use our weather pages